GW0743 Weather Reports


Display with metric or nautical units.
time (UTC)temp
F
wind
direction
speed
MPH
gust
MPH
rain 1hr
in
rain 24hr
in
rain mn
in
humidity
%
barometer
mb
20260504050506 47 184 0.0 0.0 0.00 0.00 0.00 66 1005.1
20260504050018 47 184 0.0 0.0 0.00 0.00 0.00 66 1005.1
20260504045511 47 184 0.0 0.0 0.00 0.00 0.00 67 1005.1
20260504045006 47 184 0.0 1.0 0.00 0.00 0.00 66 1005.3
20260504044526 48 133 0.0 1.0 0.00 0.00 0.00 67 1005.3
20260504044011 48 133 0.0 1.0 0.00 0.00 0.00 66 1005.4
20260504043509 47 141 0.0 0.0 0.00 0.00 0.00 66 1005.4
20260504043028 47 141 0.0 0.0 0.00 0.00 0.00 66 1005.5
20260504042509 47 141 0.0 0.0 0.00 0.00 0.00 65 1005.6
20260504042010 48 141 0.0 0.0 0.00 0.00 0.00 65 1005.6
20260504041530 48 141 0.0 1.0 0.00 0.00 0.00 64 1005.6
20260504041011 49 141 0.0 1.0 0.00 0.00 0.00 63 1005.7
20260504040513 49 139 0.0 1.0 0.00 0.00 0.00 62 1005.8
20260504040017 49 139 0.0 0.0 0.00 0.00 0.00 62 1005.9
20260504035507 50 139 0.0 0.0 0.00 0.00 0.00 59 1005.9
20260504035008 50 139 0.0 1.0 0.00 0.00 0.00 60 1006.1
20260504034520 50 139 0.0 1.0 0.00 0.00 0.00 65 1006.2
20260504034007 50 141 0.0 1.0 0.00 0.00 0.00 64 1006.3
20260504033508 50 149 0.0 0.0 0.00 0.00 0.00 60 1006.3
20260504033025 51 149 0.0 0.0 0.00 0.00 0.00 55 1006.4
20260504032509 52 149 0.0 0.0 0.00 0.00 0.00 53 1006.4
20260504032015 52 149 0.0 0.0 0.00 0.00 0.00 51 1006.4
20260504031528 52 149 0.0 0.0 0.00 0.00 0.00 50 1006.4
20260504031010 52 149 0.0 0.0 0.00 0.00 0.00 49 1006.5
20260504030511 52 149 0.0 0.0 0.00 0.00 0.00 52 1006.5
20260504030038 52 149 0.0 0.0 0.00 0.00 0.00 52 1006.4
20260504025510 52 149 0.0 0.0 0.00 0.00 0.00 52 1006.4
20260504025010 52 149 0.0 2.0 0.00 0.00 0.00 53 1006.5
20260504024519 53 149 0.0 2.0 0.00 0.00 0.00 56 1006.4
20260504024007 54 150 1.0 2.0 0.00 0.00 0.00 54 1006.4
20260504023507 55 251 0.0 0.0 0.00 0.00 0.00 52 1006.4
20260504023024 56 277 0.0 0.0 0.00 0.00 0.00 43 1006.4
20260504022503 56 277 0.0 0.0 0.00 0.00 0.00 43 1006.4
20260504022004 57 277 0.0 0.0 0.00 0.00 0.00 43 1006.4
20260504021504 57 277 0.0 0.0 0.00 0.00 0.00 41 1006.4
20260504021003 57 277 0.0 0.0 0.00 0.00 0.00 40 1006.4
20260504020502 58 277 0.0 0.0 0.00 0.00 0.00 40 1006.4
20260504020012 59 277 0.0 0.0 0.00 0.00 0.00 40 1006.5
20260504015502 59 277 0.0 0.0 0.00 0.00 0.00 38 1006.5
20260504015006 60 277 0.0 0.0 0.00 0.00 0.00 37 1006.5
20260504014516 60 277 0.0 0.0 0.00 0.00 0.00 37 1006.5
20260504014009 61 277 0.0 0.0 0.00 0.00 0.00 36 1006.5
20260504013508 62 278 0.0 1.0 0.00 0.00 0.00 35 1006.5
20260504013019 63 278 0.0 1.0 0.00 0.00 0.00 34 1006.5
20260504012510 63 283 0.0 1.0 0.00 0.00 0.00 33 1006.5
20260504012015 64 283 0.0 1.0 0.00 0.00 0.00 33 1006.5
20260504011504 64 283 0.0 2.0 0.00 0.00 0.00 33 1006.5
20260504011005 65 292 0.0 2.0 0.00 0.00 0.00 32 1006.5
20260504010501 65 282 0.0 5.0 0.00 0.00 0.00 32 1006.5
20260504010009 66 291 1.0 7.0 0.00 0.00 0.00 32 1006.5
20260504005504 66 307 4.0 7.0 0.00 0.00 0.00 31 1006.6
20260504005003 67 304 3.0 6.0 0.00 0.00 0.00 32 1006.6
20260504004519 67 293 4.0 10.0 0.00 0.00 0.00 31 1006.6
20260504004011 67 297 4.0 10.0 0.00 0.00 0.00 31 1006.7
20260504003506 68 295 4.0 10.0 0.00 0.00 0.00 30 1006.7
20260504003027 68 298 6.0 10.0 0.00 0.00 0.00 29 1006.6
20260504002506 68 301 7.0 10.0 0.00 0.00 0.00 29 1006.7
20260504002010 69 302 7.0 11.0 0.00 0.00 0.00 28 1006.6
20260504001519 69 295 8.0 12.0 0.00 0.00 0.00 28 1006.5
20260504001008 69 295 7.0 12.0 0.00 0.00 0.00 29 1006.6
20260504000508 69 294 6.0 9.0 0.00 0.00 0.00 29 1006.5
20260504000025 69 268 4.0 11.0 0.00 0.00 0.00 29 1006.5
20260503235504 69 280 4.0 11.0 0.00 0.00 0.00 29 1006.6
20260503235004 70 278 7.0 11.0 0.00 0.00 0.00 29 1006.6
20260503234525 70 293 5.0 10.0 0.00 0.00 0.00 29 1006.8
20260503234005 70 299 6.0 11.0 0.00 0.00 0.00 28 1006.7
20260503233504 70 319 6.0 14.0 0.00 0.00 0.00 28 1006.7
20260503233012 70 290 7.0 16.0 0.00 0.00 0.00 28 1006.7
20260503232506 70 298 7.0 16.0 0.00 0.00 0.00 28 1006.7
20260503232006 70 309 7.0 12.0 0.00 0.00 0.00 30 1006.6
20260503231519 70 297 6.0 14.0 0.00 0.00 0.00 30 1006.7
20260503231013 70 337 8.0 17.0 0.00 0.00 0.00 30 1006.7
20260503230512 70 319 11.0 16.0 0.00 0.00 0.00 27 1006.7
20260503230022 70 283 7.0 12.0 0.00 0.00 0.00 29 1006.9
20260503225511 70 294 7.0 15.0 0.00 0.00 0.00 27 1006.9
20260503225012 71 326 7.0 15.0 0.00 0.00 0.00 31 1006.9
20260503224527 71 289 10.0 15.0 0.00 0.00 0.00 29 1006.8
20260503224002 71 308 10.0 15.0 0.00 0.00 0.00 28 1006.7
20260503223514 71 291 6.0 14.0 0.00 0.00 0.00 28 1006.6
20260503223012 71 307 9.0 16.0 0.00 0.00 0.00 28 1006.7
20260503222503 71 308 11.0 17.0 0.00 0.00 0.00 28 1006.6
20260503222004 71 299 10.0 17.0 0.00 0.00 0.00 27 1006.7
20260503221516 72 301 9.0 20.0 0.00 0.00 0.00 29 1006.7
20260503221010 72 295 12.0 20.0 0.00 0.00 0.00 30 1006.6
20260503220506 71 305 12.0 16.0 0.00 0.00 0.00 27 1006.6
20260503220038 72 309 10.0 16.0 0.00 0.00 0.00 28 1006.7
20260503215509 71 314 11.0 18.0 0.00 0.00 0.00 28 1006.6
20260503215008 71 311 13.0 19.0 0.00 0.00 0.00 28 1006.6
20260503214524 71 302 10.0 20.0 0.00 0.00 0.00 29 1006.6
20260503214009 72 317 14.0 20.0 0.00 0.00 0.00 27 1006.7
20260503213514 72 320 13.0 19.0 0.00 0.00 0.00 29 1006.8
20260503213027 71 302 9.0 15.0 0.00 0.00 0.00 29 1006.9
20260503212502 71 283 10.0 17.0 0.00 0.00 0.00 28 1006.9
20260503212006 72 309 11.0 17.0 0.00 0.00 0.00 27 1006.9
20260503211512 71 342 10.0 19.0 0.00 0.00 0.00 27 1006.9
20260503211006 71 313 12.0 19.0 0.00 0.00 0.00 27 1007.0
20260503210505 71 293 8.0 15.0 0.00 0.00 0.00 30 1007.0
20260503210017 71 285 9.0 16.0 0.00 0.00 0.00 29 1006.9
20260503205507 72 307 10.0 18.0 0.00 0.00 0.00 29 1007.0
20260503205008 71 307 13.0 18.0 0.00 0.00 0.00 26 1007.1
20260503204524 71 278 7.0 20.0 0.00 0.00 0.00 30 1007.1
20260503204011 72 297 15.0 20.0 0.00 0.00 0.00 27 1007.1
20260503203511 72 9 15.0 19.0 0.00 0.00 0.00 25 1007.1
20260503203030 71 314 5.0 19.0 0.00 0.00 0.00 29 1007.1
20260503202509 72 297 12.0 19.0 0.00 0.00 0.00 28 1007.3
20260503202014 73 333 12.0 20.0 0.00 0.00 0.00 27 1007.4
20260503201528 72 300 12.0 21.0 0.00 0.00 0.00 27 1007.3
20260503201008 72 338 16.0 21.0 0.00 0.00 0.00 26 1007.4
20260503200505 71 313 11.0 17.0 0.00 0.00 0.00 28 1007.3
20260503200016 71 295 10.0 22.0 0.00 0.00 0.00 28 1007.4
20260503195506 72 321 16.0 22.0 0.00 0.00 0.00 28 1007.4
20260503195008 72 319 16.0 21.0 0.00 0.00 0.00 27 1007.5
20260503194522 71 321 14.0 24.0 0.00 0.00 0.00 29 1007.4
20260503194005 71 319 13.0 24.0 0.00 0.00 0.00 29 1007.5
20260503193511 71 318 11.0 21.0 0.00 0.00 0.00 28 1007.4
20260503193026 71 306 14.0 24.0 0.00 0.00 0.00 29 1007.4
20260503192509 72 329 16.0 24.0 0.00 0.00 0.00 28 1007.4
20260503192009 72 304 14.0 24.0 0.00 0.00 0.00 29 1007.5
20260503191527 71 331 13.0 24.0 0.00 0.00 0.00 29 1007.6
20260503191010 71 314 12.0 23.0 0.00 0.00 0.00 31 1007.5
20260503190512 72 319 15.0 23.0 0.00 0.00 0.00 28 1007.5
20260503190030 71 328 16.0 24.0 0.00 0.00 0.00 26 1007.5
20260503185506 71 321 15.0 24.0 0.00 0.00 0.00 30 1007.6
20260503185006 71 310 17.0 24.0 0.00 0.00 0.00 28 1007.6
20260503184516 71 303 15.0 25.0 0.00 0.00 0.00 28 1007.5
20260503184007 71 300 11.0 25.0 0.00 0.00 0.00 31 1007.5
20260503183509 71 319 17.0 22.0 0.00 0.00 0.00 29 1007.5
20260503183034 71 299 14.0 25.0 0.00 0.00 0.00 30 1007.6
20260503182509 70 319 21.0 25.0 0.00 0.00 0.00 29 1007.5
20260503182010 70 307 14.0 21.0 0.00 0.00 0.00 31 1007.6
20260503181527 70 297 11.0 19.0 0.00 0.00 0.00 35 1007.6
20260503181012 70 326 13.0 21.0 0.00 0.00 0.00 33 1007.6
20260503180509 69 316 15.0 21.0 0.00 0.00 0.00 34 1007.7
20260503180031 69 303 15.0 21.0 0.00 0.00 0.00 33 1007.6
20260503175509 69 291 12.0 23.0 0.00 0.00 0.00 36 1007.7
20260503175018 69 308 17.0 23.0 0.00 0.00 0.00 34 1007.7
20260503174529 70 340 14.0 26.0 0.00 0.00 0.00 35 1007.8
20260503174011 70 309 15.0 30.0 0.00 0.00 0.00 35 1007.8
20260503173503 70 337 19.0 30.0 0.00 0.00 0.00 34 1007.7
20260503173018 69 328 16.0 26.0 0.00 0.00 0.00 34 1007.8
20260503172502 68 339 22.0 26.0 0.00 0.00 0.00 33 1007.8
20260503172002 68 342 20.0 26.0 0.00 0.00 0.00 35 1007.8
20260503171502 68 347 21.0 26.0 0.00 0.00 0.00 34 1007.9
20260503171003 68 322 20.0 26.0 0.00 0.00 0.00 35 1008.0
20260503170505 68 321 18.0 30.0 0.00 0.00 0.00 38 1008.0
20260503151004 60 287 8.0 19.0 0.00 0.00 0.00 52 1007.3
20260503150503 60 311 11.0 19.0 0.00 0.00 0.00 51 1007.3
20260503131003 54 250 5.0 10.0 0.00 0.00 0.00 53 1007.3
20260503130503 53 229 5.0 10.0 0.00 0.00 0.00 54 1007.3
20260503110503 49 162 4.0 10.0 0.00 0.00 0.00 56 1007.7
20260503090505 53 144 6.0 11.0 0.00 0.00 0.00 48 1009.7
20260503081524 53 77 3.0 10.0 0.00 0.00 0.00 51 1010.4
20260503081006 53 105 6.0 11.0 0.00 0.00 0.00 51 1009.9
20260503080504 53 122 6.0 11.0 0.00 0.00 0.00 51 1009.9